Regional Weather Roundup
Issued by NWS

Home | Current Version | Previous Version | Text Only | Print | Product List | Glossary Off
Versions: 1 2 3 4 5 6 7 8 9 10 11 12 13 14 15 16 17 18 19 20 21 22 23 24 25 26 27 28 29 30 31 32 33 34 35 36 37 38 39 40 41 42 43 44 45 46 47 48 49 50

000
ASUS45 KBOI 210410
RWRID

IDAHO REGIONAL WEATHER ROUNDUP
NATIONAL WEATHER SERVICE BOISE ID
1000 PM MDT FRI APR 20 2018

NOTE: "FAIR" INDICATES FEW OR NO CLOUDS BELOW 12000 FEET
WITH NO SIGNIFICANT WEATHER AND/OR OBSTRUCTIONS TO VISIBILITY

IDZ012-014-210500-
SOUTHWEST IDAHO


CITY           SKY/WX    TMP DP  RH WIND       PRES   REMARKS
BOISE          CLEAR     57  29  34 NE5       30.09R
CALDWELL       CLEAR     58  27  30 CALM      30.08R
MOUNTAIN HOME  CLEAR     54  24  31 NW10      30.09
$$

IDZ016-017-210500-
SOUTHCENTRAL IDAHO


CITY           SKY/WX    TMP DP  RH WIND       PRES   REMARKS
BURLEY         CLEAR     50  26  39 SW14G21   30.10R
JEROME         CLEAR     53  26  35 SW12      30.10R
TWIN FALLS     CLEAR     48  26  42 S13       30.12R
$$

IDZ019>023-210500-
SOUTHEAST IDAHO


CITY           SKY/WX    TMP DP  RH WIND       PRES   REMARKS
IDAHO FALLS    CLEAR     46  27  47 N9        30.08R
POCATELLO      CLEAR     54  29  38 SW14      30.10R
REXBURG        CLEAR     51  25  36 E6        30.07R
$$

IDZ006-010-011-018-031-032-210500-
CENTRAL IDAHO MOUNTAINS


CITY           SKY/WX    TMP DP  RH WIND       PRES   REMARKS
MCCALL         CLEAR     44  28  53 NE5       30.13R
HAILEY         CLEAR     52  34  50 NW3       30.11R
STANLEY          N/A     35  21  56 S6        30.18R WCI  30
SALMON         CLEAR     51  28  41 S7        30.09R
CHALLIS        CLEAR     50  21  32 NW6       30.09R
$$

IDZ002-004-006-007-026-210500-
NORTHERN IDAHO


CITY           SKY/WX    TMP DP  RH WIND       PRES   REMARKS
LEWISTON       CLEAR     58  40  51 S3        30.10R
LOWELL           N/A     48  41  76 N3        30.13R
COEUR D`ALENE  CLEAR     47  37  68 SW5       30.10S
MULLAN PASS    CLEAR     40  29  64 SW6       30.13F
$$



USA.gov is the U.S. government's official web portal to all federal, state and local government web resources and services.